Location: Il Ritiro
(43.4167°N, 13.1333°E)
Time: 01:45:08
(UTC+00:00)

ATLAS CENTAUR R/B - Pass Details

Date: 05 July 2020
Orbit: 475 x 672 km, 64.7° (Epoch: 13 July)

Event Time Altitude Azimuth Distance (km) Brightness Sun altitude
Rises 20:14:23 0° 335° (NNW) 2,574 6.4 -12.3°
Reaches altitude 10° 20:16:51 10° 349° (N) 1,670 4.8 -12.6°
Maximum altitude 20:19:55 24° 45° (NE) 1,033 2.8 -13.0°
Enters shadow 20:22:16 14° 94° (E) 1,437 3.0 -13.3°
